sat.trackr.live / text

‹ back to catalog

HUBBLE 6

NORAD 64562 · 2025-135AL

PAYLOAD ACTIVE UNKNOWN

§ Identity

Operator
Country
US
Launch date
2025-06-23
Launch site
AFWTR
Launch vehicle
Mass (kg)
RCS (m²)

External: N2YO · Heavens-Above · Gunter

§ Orbital elements

Epoch: 2026-05-24T17:50:53.645280Z

Period
96.41 min
Inclination
97.7727°
Eccentricity
0.0001489
Mean motion
14.93641887 rev/d
Perigee alt
585.6 km
Apogee alt
587.6 km
Semi-major
6,964.7 km
B*
1.9739e-4
RAAN
259.1699°
Arg perigee
106.9280°
Mean anomaly
253.2103°
Rev number
5,037

§ Raw data

HUBBLE 61 64562U 25135AL  26144.74367645  .00002028  00000+0  19739-3 0  99912 64562  97.7727 259.1699 0001489 106.9280 253.2103 14.93641887 50375

JSON: /api/v1/satellites/64562 · /tle

For live sub-satellite position, see the globe view (requires WebGL).

§ Visibility from observer

Set your observer location to see the next 7 days of passes ≥ 10°. The values pass through the URL so the page stays shareable.

No JS? Fill the form by hand. The geolocation button needs JavaScript.

§ Radio — SatNOGS DB

ModeDescriptionDownlinkUplink
FM Mode S - Transmitter 2.201 GHz
GMSK Mode U - GMSK4k8 401.100 MHz
FM Mode U - Transmitter 2 402.790 MHz

3 transmitters · refreshed weekly from db.satnogs.org